Volver al catálogo

STARLINK-3358

ActivoComunicacionesVLEO
NORAD 51109·PAYLOAD·🇺🇸 United States

Lanzado Jan 19, 2022 desde Cape Canaveral Space Force Station

Loading…

Próximos Pases (próximas 24 horas)

TLE

ActualizadoSource: CelesTrak SupGP

Época: Sep 14, 2026, 21:05 UTC

1 51109C 22005F   26257.87895833 -.00023761  00000+0 -76413-3 0  2579
2 51109  53.1595 152.0731 0001264  88.4612 136.5338 15.31712567    15

Sigue STARLINK-3358 en tiempo real con AllMySat

Download on the App Store